PEGASUS DEB, 29033

Orbit data source: Space-Track

PEGASUS DEB, 29033 is space debris in LEO originally from a launch on Thu, 19 May 1994 UTC launched from the Air Force Western Test Range (AFWTR). Debris objects in space refer to the collection of defunct objects orbiting the Earth. Examples of debris include non-operational satellites, rocket bodies, and fragments generated from explosions, collisions, or faulty payload assembly.

Loading next visibility...
Identifier
29033, 1994-029AEQ
Orbit
LEO
Country
Flag of USUS
Related business
Manufacturer
Unknown
Mission
Spacecraft
Bus & Motor
Unknown
Mass
Unknown
Launch date (UTC)
1994-05-19 (32 years ago)
Launch vehicle
Unknown
Launch site
Air Force Western Test Range (AFWTR)
Object type
Payload
Rocket body
Debris
Shape & HBR
Unknown shape, 0.1 m
Radar Cross Section
Small (<0.1 m²)

Expand to show TLE details & history
Last TLE update: 19 hours ago

TLE from 19 hours ago
0 PEGASUS DEB
1 29033U 94029AEQ 26173.63757744  .00005204  00000-0  66121-3 0  9993
2 29033  81.9607 302.9031 0154934  14.0829 346.4623 14.73295113229926
Epoch: 2026-06-22T15:18Z
TLE epoch observation values (Epoch: 2026-06-22T15:18:06.690Z)
Latitude
-0.00002°
Longitude
162.55459°
Altitude
547.776 km
Speed
7.645 km/s
True Right ascension
20h 11m 36s
True Declination
0° 00' 00"
Sunlit
Object was in full shadow at epoch
Visualization orbit readout
Latitude
Unknown
Longitude
Unknown
Altitude
Unknown
Speed
Unknown
Apparent Right ascension
Unknown
Apparent Declination
Unknown
Sunlit
N/A
Visualization observer readout
Local Sidereal Time
21:09:52
Azimuth
Unknown
Elevation
Unknown
Doppler factor
Unknown
Orbital elements
Apogee altitude
756.476 km
Perigee altitude
538.771 km
Semi-major axis
7,025.76 km
Eccentricity
0.01549
Inclination
81.9607°
RAAN
302.9031°
Arg. of periapsis
14.0829°
True anomaly
346.03874°
Mean anomaly
346.4623°
Eccentric anomaly
346.25132°
Mean motion
3.68556 °/min
Orbital period
97.68 mins
BSTAR
0.00066121
Loading maneuver chart data...
Computing Atmospheric mass density...

Documentation

Showing up to 5 results
|